User: anonymous   Login
Location: Pine Mountain Observatory
(43.7910°N, 120.9377°W)
Time: 22:31:15
(UTC-07:00)
Language:

APEX - Orbit

View from above orbital plane
View from above orbital plane
View from above satellite
View from above satellite

Ground track
Ground track

The orbit data is extracted from the following two-line orbital elements,

1 23191U 94046A   17083.96240267 +.00017006 +00000-0 +56523-3 0  9992
2 23191 069.9233 054.5800 0609330 002.7285 357.6914 14.36710320104419
Epoch (UTC): 24 March 2017 23:05:51
Eccentricity: 0.0609330
inclination: 69.9233°
perigee height: 334 km
apogee height: 1205 km
right ascension of ascending node: 54.5800°
argument of perigee: 2.7285°
revolutions per day: 14.36710320
mean anomaly at epoch: 357.6914°
orbit number at epoch: 10441

The dashed part of the orbit path shows where the satellite is in the earth's shadow,  

DLR